Location: Bayshore Village Mobile Home Park
(26.6945°N, 81.8642°W)
Time: 14:54:48
(UTC+00:00)

COSMOS 2406 - Pass Details

Date: 17 June 2021
Orbit: 843 x 863 km, 71.0° (Epoch: 26 July)

Event Time Altitude Azimuth Distance (km) Brightness Sun altitude
Exits shadow 09:04:33 19° 189° (S) 1,886 4.6 -17.7°
Maximum altitude 09:08:38 74° 107° (ESE) 875 3.3 -16.9°
Drops below altitude 10° 09:14:16 10° 23° (NNE) 2,462 6.6 -15.9°
Sets 09:16:43 0° 22° (NNE) 3,400 7.4 -15.5°
